User: anonymous   Login
Location: Del Oro Observatory
(38.3044°N, 104.8119°W)
Time: 13:13:20
(UTC-06:00)
Language:

Cosmos 1602 Rocket - Orbit

View from above orbital plane
View from above orbital plane
View from above satellite
View from above satellite

Ground track
Ground track

The orbit data is extracted from the following two-line orbital elements,

1 15332U 84105B   16209.41473971  .00000105  00000-0  99017-5 0  9993
2 15332  82.5366 131.6413 0021350   5.6441 133.2915 14.83250809718444
Epoch (UTC): 27 July 2016 09:57:13
Eccentricity: 0.0021350
inclination: 82.5366°
perigee height: 604 km
apogee height: 634 km
right ascension of ascending node: 131.6413°
argument of perigee: 5.6441°
revolutions per day: 14.83250809
mean anomaly at epoch: 133.2915°
orbit number at epoch: 71844

The dashed part of the orbit path shows where the satellite is in the earth's shadow,  

DLR